CW5757 Weather Reports


Display with metric or nautical units.
time (UTC)temp
F
wind
direction
speed
MPH
gust
MPH
rain 1hr
in
rain 24hr
in
rain mn
in
humidity
%
barometer
mb
20260508084939 0 0.0 0.0 0.00 0.42 0.00 1014.7
20260508084439 0 0.0 0.0 0.00 0.42 0.00 1014.5
20260508083939 0 0.0 0.0 0.00 0.42 0.00 1014.6
20260508083439 0 0.0 0.0 0.00 0.42 0.00 1014.6
20260508082939 0 0.0 0.0 0.00 0.42 0.00 1014.5
20260508082439 0 0.0 0.0 0.00 0.42 0.00 1014.6
20260508081939 0 0.0 0.0 0.00 0.42 0.00 1014.6
20260508081439 0 0.0 0.0 0.00 0.42 0.00 1014.5
20260508080939 0 0.0 0.0 0.00 0.42 0.00 1014.5
20260508080439 0 0.0 0.0 0.00 0.42 0.00 1014.6
20260508075939 0 0.0 0.0 0.00 0.42 0.00 1014.7
20260508075439 0 0.0 0.0 0.00 0.42 0.00 1014.7
20260508074939 0 0.0 0.0 0.00 0.42 0.00 1014.6
20260508074439 0 0.0 0.0 0.00 0.42 0.00 1014.7
20260508073939 0 0.0 0.0 0.00 0.42 0.00 1014.6
20260508073439 0 0.0 0.0 0.00 0.42 0.00 1014.6
20260508072939 0 0.0 0.0 0.00 0.42 0.00 1014.5
20260508072439 0 0.0 0.0 0.00 0.42 0.00 1014.6
20260508071939 0 0.0 0.0 0.00 0.42 0.00 1014.6
20260508071440 0 0.0 0.0 0.00 0.42 0.00 1014.6
20260508070947 0 0.0 0.0 0.00 0.42 0.00 1014.7
20260508070454 0 0.0 0.0 0.00 0.42 0.00 1014.6
20260508070001 0 0.0 0.0 0.00 0.42 0.00 1014.6
20260508065456 0 0.0 0.0 0.00 0.42 0.00 1014.6
20260508065003 0 0.0 0.0 0.00 0.42 0.00 1014.6
20260508064038 0 0.0 0.0 0.00 0.42 0.00 1014.5
20260508063538 0 0.0 0.0 0.00 0.42 0.00 1014.6
20260508063043 0 0.0 0.0 0.00 0.42 0.00 1014.6
20260508062550 0 0.0 0.0 0.00 0.42 0.00 1014.6
20260508062038 0 0.0 0.0 0.00 0.42 0.00 1014.5
20260508061543 0 0.0 0.0 0.00 0.42 0.00 1014.5
20260508061050 0 0.0 0.0 0.00 0.42 0.00 1014.4
20260508060538 0 0.0 0.0 0.00 0.42 0.00 1014.5
20260508060038 0 0.0 0.0 0.00 0.42 0.00 1014.6
20260508055538 0 0.0 0.0 0.00 0.42 0.00 1014.6
20260508055038 0 0.0 0.0 0.00 0.42 0.00 1014.5
20260508054538 0 0.0 0.0 0.00 0.42 0.00 1014.6
20260508053653 0 0.0 0.0 0.00 0.42 0.00 1014.6
20260508053153 0 0.0 0.0 0.00 0.42 0.00 1014.6
20260508052653 0 0.0 0.0 0.00 0.42 0.00 1014.6
20260508052153 0 0.0 0.0 0.00 0.42 0.00 1014.5
20260508051654 0 0.0 0.0 0.00 0.42 0.00 1014.6
20260508051153 0 0.0 0.0 0.00 0.42 0.00 1014.5
20260508050653 0 0.0 0.0 0.00 0.42 0.00 1014.5
20260508050158 0 0.0 0.0 0.00 0.42 0.00 1014.5
20260508045705 0 0.0 0.0 0.00 0.42 0.00 1014.6
20260508045153 0 0.0 0.0 0.00 0.42 0.00 1014.7
20260508044653 0 0.0 0.0 0.00 0.42 0.00 1014.6
20260508044153 0 0.0 0.0 0.00 0.42 0.00 1014.6
20260508043659 0 0.0 0.0 0.00 0.42 0.00 1014.6
20260508043205 0 0.0 0.0 0.00 0.42 0.00 1014.5
20260508042653 0 0.0 0.0 0.00 0.42 0.00 1014.7
20260508042158 0 0.0 0.0 0.00 0.42 0.00 1014.4
20260508041705 0 0.0 0.0 0.00 0.43 0.00 1014.4
20260508041153 0 0.0 0.0 0.00 0.43 0.00 1014.5
20260508040653 0 0.0 0.0 0.00 0.43 0.00 1014.3
20260508040153 0 0.0 0.0 0.00 0.43 0.00 1014.4
20260508035658 0 0.0 0.0 0.00 0.44 0.00 1014.3
20260508035205 0 0.0 0.0 0.00 0.46 0.00 1014.3
20260508034653 0 0.0 0.0 0.00 0.46 0.00 1014.3
20260508034153 0 0.0 0.0 0.00 0.47 0.00 1014.3
20260508033653 0 0.0 0.0 0.00 0.48 0.00 1014.3
20260508033153 0 0.0 0.0 0.00 0.50 0.00 1014.2
20260508032653 0 0.0 0.0 0.00 0.52 0.00 1014.4
20260508032158 0 0.0 0.0 0.00 0.53 0.00 1014.3
20260508031705 0 0.0 0.0 0.00 0.55 0.00 1014.3
20260508031153 0 0.0 0.0 0.00 0.57 0.00 1014.3
20260508030653 0 0.0 0.0 0.00 0.60 0.00 1014.3
20260508030153 0 0.0 0.0 0.00 1.22 0.00 1014.2
20260508025653 0 0.0 0.0 0.00 1.22 0.00 1014.3
20260508025153 0 0.0 0.0 0.00 1.22 0.00 1014.2
20260508024653 0 0.0 0.0 0.00 1.22 0.00 1014.0
20260508023742 0 0.0 0.0 0.00 1.22 0.00 1014.1
20260508023038 0 0.0 0.0 0.00 1.22 0.00 1013.9
20260508022543 0 0.0 0.0 0.00 1.22 0.00 1013.8
20260508022050 0 0.0 0.0 0.00 1.22 0.00 1013.9
20260508021041 0 0.0 0.0 0.00 1.22 0.00 1013.7
20260508020129 0 0.0 0.0 0.00 1.22 0.00 1013.6
20260508015459 0 0.0 0.0 0.00 1.22 0.00 1013.6
20260508015006 0 0.0 0.0 0.00 1.22 0.00 1013.6
20260508014500 0 0.0 0.0 0.00 1.22 0.00 1013.5
20260508014007 0 0.0 0.0 0.00 1.22 0.00 1013.5
20260508013514 0 0.0 0.0 0.00 1.22 0.00 1013.5
20260508013009 0 0.0 0.0 0.00 1.22 0.00 1013.2
20260508012516 0 0.0 0.0 0.00 1.22 0.00 1013.1
20260508012023 0 0.0 0.0 0.00 1.22 0.00 1013.1
20260508011529 0 0.0 0.0 0.00 1.22 0.00 1013.0
20260508011024 0 0.0 0.0 0.00 1.22 0.00 1013.0
20260508010507 0 0.0 0.0 0.00 1.22 0.00 1012.9
20260508010014 0 0.0 0.0 0.00 1.22 0.00 1013.1
20260508005508 0 0.0 0.0 0.00 1.22 0.00 1013.0
20260508004951 0 0.0 0.0 0.00 1.22 0.00 1012.9
20260508004439 0 0.0 0.0 0.00 1.23 0.00 1012.8
20260508003939 0 0.0 0.0 0.00 1.24 0.00 1012.6
20260508003439 0 0.0 0.0 0.00 1.25 0.00 1012.6
20260508002939 0 0.0 0.0 0.00 1.26 0.00 1012.5
20260508002442 0 0.0 0.0 0.00 1.28 1.26 1012.4
20260508001949 0 0.0 0.0 0.00 1.29 1.26 1012.1
20260508001456 0 0.0 0.0 0.00 1.29 1.26 1012.1
20260508001003 0 0.0 0.0 0.00 1.29 1.26 1012.0
20260508000439 0 0.0 0.0 0.00 1.29 1.26 1011.9
20260507235939 0 0.0 0.0 0.00 1.29 1.26 1011.9
20260507235439 0 0.0 0.0 0.00 1.29 1.26 1011.8
20260507234939 0 0.0 0.0 0.00 1.29 1.26 1011.7
20260507234441 0 0.0 0.0 0.00 1.29 1.26 1011.8
20260507233949 0 0.0 0.0 0.00 1.29 1.26 1011.5
20260507233454 0 0.0 0.0 0.00 1.29 1.26 1011.5
20260507233001 0 0.0 0.0 0.00 1.29 1.26 1011.3
20260507232508 0 0.0 0.0 0.00 1.29 1.26 1011.3
20260507231951 0 0.0 0.0 0.00 1.29 1.26 1011.1
20260507231439 0 0.0 0.0 0.00 1.29 1.26 1011.0
20260507230944 0 0.0 0.0 0.00 1.29 1.26 1011.1
20260507230450 0 0.0 0.0 0.00 1.29 1.26 1011.2
20260507225939 0 0.0 0.0 0.00 1.29 1.26 1011.0
20260507225439 0 0.0 0.0 0.00 1.29 1.26 1010.9
20260507224942 0 0.0 0.0 0.00 1.29 1.26 1010.7
20260507224449 0 0.0 0.0 0.00 1.29 1.26 1010.9
20260507223956 0 0.0 0.0 0.00 1.29 1.26 1011.0
20260507223503 0 0.0 0.0 0.00 1.29 1.26 1010.8
20260507222944 0 0.0 0.0 0.00 1.29 1.26 1010.7
20260507222451 0 0.0 0.0 0.00 1.29 1.26 1010.7
20260507221944 0 0.0 0.0 0.00 1.29 1.26 1010.5
20260507221451 0 0.0 0.0 0.00 1.29 1.26 1010.6
20260507220939 0 0.0 0.0 0.00 1.29 1.26 1010.5
20260507220238 0 0.0 0.0 0.00 1.29 1.26 1010.5
20260507215738 0 0.0 0.0 0.00 1.29 1.26 1010.4
20260507215238 0 0.0 0.0 0.00 1.29 1.26 1010.3
20260507214738 0 0.0 0.0 0.00 1.29 1.26 1010.3
20260507214237 0 0.0 0.0 0.00 1.29 1.26 1010.2
20260507213738 0 0.0 0.0 0.00 1.29 1.26 1010.1
20260507213238 0 0.0 0.0 0.00 1.29 1.26 1010.1
20260507212738 0 0.0 0.0 0.00 1.29 1.26 1010.2
20260507212238 0 0.0 0.0 0.00 1.29 1.26 1010.3
20260507211738 0 0.0 0.0 0.00 1.29 1.26 1010.3
20260507211238 0 0.0 0.0 0.00 1.29 1.26 1010.1
20260507210738 0 0.0 0.0 0.00 1.29 1.26 1010.2
20260507210238 0 0.0 0.0 0.00 1.29 1.26 1010.1
20260507205738 0 0.0 0.0 0.00 1.29 1.26 1010.0
20260507205238 0 0.0 0.0 0.00 1.29 1.26 1010.1
20260507204738 0 0.0 0.0 0.00 1.29 1.26 1009.9
20260507204244 0 0.0 0.0 0.00 1.29 1.26 1009.8
20260507203751 0 0.0 0.0 0.00 1.29 1.26 1009.9
20260507203238 0 0.0 0.0 0.00 1.29 1.26 1009.9
20260507202738 0 0.0 0.0 0.00 1.29 1.26 1009.9
20260507202238 0 0.0 0.0 0.00 1.29 1.26 1009.7
20260507201738 0 0.0 0.0 0.00 1.29 1.26 1009.8
20260507201238 0 0.0 0.0 0.00 1.29 1.26 1009.9
20260507200738 0 0.0 0.0 0.00 1.29 1.26 1010.2
20260507200238 0 0.0 0.0 0.00 1.29 1.26 1010.1
20260507195738 0 0.0 0.0 0.00 1.29 1.26 1010.1
20260507195238 0 0.0 0.0 0.00 1.29 1.26 1010.1
20260507194743 0 0.0 0.0 0.00 1.29 1.26 1010.1
20260507194250 0 0.0 0.0 0.00 1.29 1.26 1010.0
20260507193738 0 0.0 0.0 0.00 1.29 1.26 1010.1
20260507193238 0 0.0 0.0 0.00 1.29 1.26 1010.1
20260507192738 0 0.0 0.0 0.00 1.29 1.26 1010.2
20260507192243 0 0.0 0.0 0.00 1.29 1.26 1010.3
20260507191750 0 0.0 0.0 0.00 1.29 1.26 1010.2
20260507191238 0 0.0 0.0 0.00 1.29 1.26 1010.1
20260507190738 0 0.0 0.0 0.00 1.29 1.26 1010.1
20260507190242 0 0.0 0.0 0.00 1.29 1.26 1010.1
20260507185749 0 0.0 0.0 0.00 1.29 1.26 1010.3
20260507185256 0 0.0 0.0 0.00 1.29 1.26 1010.2
20260507184751 0 0.0 0.0 0.00 1.29 1.26 1010.3
20260507184238 0 0.0 0.0 0.00 1.29 1.26 1010.3
20260507183738 0 0.0 0.0 0.00 1.29 1.26 1010.2
20260507183238 0 0.0 0.0 0.00 1.29 1.26 1010.3
20260507182738 0 0.0 0.0 0.00 1.29 1.26 1010.3
20260507182243 0 0.0 0.0 0.00 1.29 1.26 1010.2
20260507181750 0 0.0 0.0 0.00 1.29 1.26 1010.2
20260507180829 0 0.0 0.0 0.00 1.29 1.26 1010.4
20260507175942 0 0.0 0.0 0.00 1.29 1.26 1010.4
20260507175442 0 0.0 0.0 0.00 1.29 1.26 1010.6
20260507174942 0 0.0 0.0 0.00 1.29 1.26 1010.6
20260507174442 0 0.0 0.0 0.00 1.29 1.26 1010.5
20260507173942 0 0.0 0.0 0.00 1.29 1.26 1010.4
20260507173442 0 0.0 0.0 0.00 1.29 1.26 1010.4
20260507172947 0 0.0 0.0 0.00 1.29 1.26 1010.4
20260507172454 0 0.0 0.0 0.00 1.29 1.26 1010.6
20260507171942 0 0.0 0.0 0.00 1.29 1.26 1010.7
20260507171250 0 0.0 0.0 0.00 1.29 1.26 1010.7
20260507170755 0 0.0 0.0 0.00 1.29 1.26 1010.5
20260507170302 0 0.0 0.0 0.00 1.29 1.26 1010.5
20260507165749 0 0.0 0.0 0.00 1.29 1.26 1010.5
20260507165250 0 0.0 0.0 0.00 1.29 1.26 1010.6
20260507164755 0 0.0 0.0 0.00 1.29 1.26 1010.6
20260507164302 0 0.0 0.0 0.00 1.29 1.26 1010.7
20260507163749 0 0.0 0.0 0.00 1.29 1.26 1010.7
20260507163249 0 0.0 0.0 0.00 1.29 1.26 1010.6
20260507162749 0 0.0 0.0 0.00 1.29 1.26 1010.5
20260507162249 0 0.0 0.0 0.00 1.29 1.26 1010.5
20260507161749 0 0.0 0.0 0.00 1.29 1.26 1010.6
20260507161249 0 0.0 0.0 0.00 1.29 1.26 1010.5
20260507160749 0 0.0 0.0 0.00 1.29 1.26 1010.4
20260507160249 0 0.0 0.0 0.00 1.29 1.26 1010.4
20260507155749 0 0.0 0.0 0.00 1.29 1.26 1010.5
20260507155249 0 0.0 0.0 0.00 1.29 1.26 1010.8
20260507154750 0 0.0 0.0 0.00 1.29 1.26 1010.8
20260507154249 0 0.0 0.0 0.00 1.29 1.26 1011.0
20260507153749 0 0.0 0.0 0.00 1.29 1.26 1010.9
20260507153249 0 0.0 0.0 0.00 1.29 1.26 1011.0
20260507152749 0 0.0 0.0 0.00 1.29 1.26 1011.4
20260507152249 0 0.0 0.0 0.00 1.29 1.26 1011.5
20260507151749 0 0.0 0.0 0.00 1.29 1.26 1011.3
20260507151254 0 0.0 0.0 0.00 1.29 1.26 1011.2
20260507150801 0 0.0 0.0 0.00 1.29 1.26 1011.1
20260507150249 0 0.0 0.0 0.00 1.29 1.26 1011.1
20260507145749 0 0.0 0.0 0.00 1.29 1.26 1011.0
20260507145255 0 0.0 0.0 0.00 1.29 1.26 1010.7
20260507144801 0 0.0 0.0 0.00 1.29 1.26 1011.0
20260507144249 0 0.0 0.0 0.00 1.29 1.26 1011.1
20260507143749 0 0.0 0.0 0.00 1.29 1.26 1011.5
20260507143249 0 0.0 0.0 0.00 1.29 1.26 1011.5
20260507142749 0 0.0 0.0 0.00 1.29 1.26 1011.6
20260507142249 0 0.0 0.0 0.00 1.29 1.26 1011.2
20260507141749 0 0.0 0.0 0.00 1.29 1.26 1011.4
20260507141254 0 0.0 0.0 0.00 1.29 1.26 1010.5
20260507140801 0 0.0 0.0 0.00 1.29 1.26 1010.3
20260507135841 0 0.0 0.0 0.00 1.29 1.26 1010.7
20260507134942 0 0.0 0.0 0.00 1.29 1.26 1010.7
20260507134211 0 0.0 0.0 0.00 1.29 1.26 1011.5
20260507133659 0 0.0 0.0 0.00 1.29 1.26 1010.8
20260507133159 0 0.0 0.0 0.00 1.29 1.26 1010.8
20260507132659 0 0.0 0.0 0.00 1.29 1.26 1010.6
20260507132159 0 0.0 0.0 0.00 1.29 1.26 1010.5
20260507131659 0 0.0 0.0 0.00 1.29 1.26 1010.9
20260507131159 0 0.0 0.0 0.00 1.29 1.26 1011.2
20260507130704 0 0.0 0.0 0.00 1.29 1.26 1011.6
20260507130211 0 0.0 0.0 0.00 1.29 1.26 1011.7
20260507125659 0 0.0 0.0 0.00 1.29 1.26 1011.6
20260507125159 0 0.0 0.0 0.00 1.29 1.26 1012.0
20260507124659 0 0.0 0.0 0.00 1.29 1.26 1011.6
20260507124159 0 0.0 0.0 0.00 1.29 1.26 1011.3
20260507123659 0 0.0 0.0 0.00 1.29 1.26 1010.9
20260507123159 0 0.0 0.0 0.00 1.29 1.26 1010.5
20260507122705 0 0.0 0.0 0.00 1.29 1.26 1010.3
20260507122211 0 0.0 0.0 0.00 1.29 1.26 1010.2
20260507121659 0 0.0 0.0 0.00 1.29 1.26 1010.3
20260507121159 0 0.0 0.0 0.00 1.29 1.26 1010.3
20260507120659 0 0.0 0.0 0.00 1.29 1.26 1010.4
20260507120159 0 0.0 0.0 0.00 1.29 1.26 1010.1
20260507115659 0 0.0 0.0 0.00 1.29 1.26 1010.1
20260507115159 0 0.0 0.0 0.00 1.29 1.26 1010.1
20260507114659 0 0.0 0.0 0.00 1.29 1.26 1010.0
20260507114204 0 0.0 0.0 0.00 1.29 1.26 1010.1
20260507113711 0 0.0 0.0 0.00 1.29 1.26 1010.0
20260507113159 0 0.0 0.0 0.42 1.29 1.26 1010.1
20260507112704 0 0.0 0.0 0.42 1.29 1.26 1010.3
20260507112211 0 0.0 0.0 0.42 1.29 1.26 1009.8
20260507111659 0 0.0 0.0 0.42 1.29 1.26 1009.6
20260507111159 0 0.0 0.0 0.42 1.29 1.26 1009.3
20260507110659 0 0.0 0.0 0.42 1.29 1.26 1009.0
20260507110159 0 0.0 0.0 0.42 1.29 1.26 1009.2
20260507105659 0 0.0 0.0 0.42 1.29 1.26 1009.2
20260507105159 0 0.0 0.0 0.42 1.29 1.26 1009.6
20260507104659 64 0.0 0.0 0.42 1.29 1.26 1009.7
20260507104159 64 41 0.0 0.0 0.42 1.29 1.26 85 1009.5
20260507103659 64 41 0.0 0.0 0.42 1.29 1.26 85 1009.5
20260507103159 0 41 0.0 0.0 0.00 0.87 0.84 85 1009.6
20260507102659 0 0.0 0.0 0.00 0.87 0.84 1009.8
20260507102159 0 0.0 0.0 0.00 0.87 0.84 1009.9
20260507101659 0 0.0 0.0 0.00 0.87 0.84 1010.1
20260507101159 0 0.0 0.0 0.00 0.87 0.84 1010.2
20260507100659 0 0.0 0.0 0.00 0.87 0.84 1010.4
20260507100159 0 0.0 0.0 0.00 0.87 0.84 1010.4
20260507095659 0 0.0 0.0 0.00 0.87 0.84 1010.4
20260507094838 0 0.0 0.0 0.00 0.87 0.84 1010.5
20260507094040 0 0.0 0.0 0.00 0.87 0.84 1010.4
20260507093539 0 0.0 0.0 0.00 0.87 0.84 1010.5
20260507093039 0 0.0 0.0 0.00 0.87 0.84 1010.7
20260507092539 0 0.0 0.0 0.00 0.87 0.84 1010.8
20260507092040 0 0.0 0.0 0.00 0.87 0.84 1010.8
20260507091539 0 0.0 0.0 0.00 0.87 0.84 1010.9
20260507091039 0 0.0 0.0 0.00 0.87 0.84 1011.0
20260507090539 0 0.0 0.0 0.00 0.87 0.84 1011.0
20260507090039 0 0.0 0.0 0.00 0.87 0.84 1010.9
20260507085539 0 0.0 0.0 0.00 0.87 0.84 1010.9